Location: Binningen
(47.7924°N, 8.7261°E)
Time: 23:05:42
(UTC+00:00)

Cosmos 1743 - Pass Details

Date: 17 May 2021
Orbit: 510 x 525 km, 82.6° (Epoch: 24 June)

Event Time Altitude Azimuth Distance (km) Brightness Sun altitude
Rises 21:17:22 0° 347° (NNW) 2,660 7.8 -17.1°
Reaches altitude 10° 21:19:31 10° 343° (NNW) 1,769 6.6 -17.3°
Maximum altitude 21:23:20 58° 264° (W) 618 3.1 -17.6°
Enters shadow 21:24:58 31° 199° (SSW) 940 3.6 -17.8°
